VRE739 DIAP-DRRN

Flight info

Callsign VRE739
Flight time 1h 33m
Altitude 37000
Route TUSEK UG855 GAPAG SORKA1R
Aircraft A320/M-SDE3FGHIRWY/LB1

Departure

Time 2026-04-24 01:52
Airport Félix-Houphouët-Boigny International Airport (DIAP)

Arrival

Time 2026-04-24 03:25
Airport Diori Hamani International Airport (DRRN)
Time Latitude Longitude Altitude Speed Heading
2026-04-24 01:29 5.25393 -3.93194 29 ft 0 kts 292°
2026-04-24 01:44 5.25387 -3.93181 29 ft 4 kts 295°
2026-04-24 01:44 5.25374 -3.93157 28 ft 4 kts 302°
2026-04-24 01:44 5.25358 -3.93135 26 ft 4 kts 311°
2026-04-24 01:45 5.25339 -3.93117 25 ft 4 kts 328°
2026-04-24 01:45 5.25316 -3.93108 28 ft 4 kts 10°
2026-04-24 01:45 5.25309 -3.93109 25 ft 2 kts 22°
2026-04-24 01:47 5.25315 -3.93106 28 ft 3 kts 22°
2026-04-24 01:47 5.25361 -3.93088 25 ft 11 kts 22°
2026-04-24 01:47 5.25454 -3.93048 23 ft 18 kts 23°
2026-04-24 01:48 5.25582 -3.92993 24 ft 19 kts 22°
2026-04-24 01:48 5.25719 -3.92937 26 ft 24 kts 22°
2026-04-24 01:48 5.25890 -3.92867 28 ft 29 kts 22°
2026-04-24 01:48 5.26094 -3.92783 27 ft 35 kts 22°
2026-04-24 01:49 5.26313 -3.92693 27 ft 29 kts 22°
2026-04-24 01:49 5.26511 -3.92613 22 ft 33 kts 22°
2026-04-24 01:49 5.26725 -3.92525 27 ft 34 kts 22°
2026-04-24 01:49 5.26953 -3.92432 25 ft 36 kts 22°
2026-04-24 01:50 5.27092 -3.92374 28 ft 13 kts 22°
2026-04-24 01:50 5.27164 -3.92331 24 ft 12 kts 58°
2026-04-24 01:50 5.27152 -3.92258 26 ft 10 kts 111°
2026-04-24 01:50 5.27126 -3.92194 29 ft 4 kts 113°
2026-04-24 01:51 5.27096 -3.92187 27 ft 6 kts 196°
2026-04-24 01:51 5.27031 -3.92215 27 ft 21 kts 204°
2026-04-24 01:51 5.26647 -3.92375 22 ft 95 kts 202°
2026-04-24 01:51 5.25857 -3.92703 38 ft 148 kts 202°
2026-04-24 01:52 5.24885 -3.93103 645 ft 149 kts 206°
2026-04-24 01:52 5.23923 -3.93504 1319 ft 154 kts 206°
2026-04-24 01:52 5.22869 -3.93951 1719 ft 175 kts 204°
2026-04-24 01:52 5.21601 -3.94081 1982 ft 204 kts 169°
2026-04-24 01:53 5.20305 -3.93329 2295 ft 233 kts 135°
2026-04-24 01:53 5.19479 -3.91831 2666 ft 263 kts 105°
2026-04-24 01:53 5.19525 -3.89951 3301 ft 279 kts 71°
2026-04-24 01:53 5.20584 -3.88336 4118 ft 283 kts 39°
2026-04-24 01:54 5.22203 -3.87200 5031 ft 284 kts 32°
2026-04-24 01:54 5.23856 -3.86128 6040 ft 280 kts 33°
2026-04-24 01:54 5.24940 -3.85432 6697 ft 278 kts 34°
2026-04-24 01:54 5.27112 -3.84038 7907 ft 277 kts 34°
2026-04-24 01:55 5.28189 -3.83343 8476 ft 277 kts 35°
2026-04-24 01:55 5.29812 -3.82292 9359 ft 278 kts 36°
2026-04-24 01:55 5.31435 -3.81233 10148 ft 281 kts 36°
2026-04-24 01:55 5.33720 -3.79736 10482 ft 311 kts 36°
2026-04-24 01:56 5.35562 -3.78529 11002 ft 320 kts 36°
2026-04-24 01:56 5.36829 -3.77701 11444 ft 324 kts 36°
2026-04-24 01:56 5.38734 -3.76459 12113 ft 329 kts 36°
2026-04-24 01:56 5.40668 -3.75199 12771 ft 333 kts 36°
2026-04-24 01:57 5.42625 -3.73924 13425 ft 338 kts 35°
2026-04-24 01:57 5.44589 -3.72645 14008 ft 343 kts 35°
2026-04-24 01:57 5.46627 -3.71318 14586 ft 347 kts 35°
2026-04-24 01:57 5.48632 -3.70010 15156 ft 350 kts 35°
2026-04-24 01:58 5.50685 -3.68670 15731 ft 354 kts 34°
2026-04-24 01:58 5.52763 -3.67312 16296 ft 357 kts 34°
2026-04-24 01:58 5.54854 -3.65946 16865 ft 361 kts 34°
2026-04-24 01:58 5.56972 -3.64565 17430 ft 365 kts 34°
2026-04-24 01:59 5.59112 -3.63171 17982 ft 368 kts 33°
2026-04-24 01:59 5.61270 -3.61765 18476 ft 372 kts 33°
2026-04-24 01:59 5.63449 -3.60342 18946 ft 375 kts 33°
2026-04-24 01:59 5.65650 -3.58904 19417 ft 378 kts 33°
2026-04-24 02:00 5.67864 -3.57457 19880 ft 382 kts 33°
2026-04-24 02:00 5.70099 -3.55997 20337 ft 385 kts 34°
2026-04-24 02:00 5.72345 -3.54528 20832 ft 387 kts 33°
2026-04-24 02:00 5.74608 -3.53048 21300 ft 389 kts 33°
2026-04-24 02:01 5.76885 -3.51557 21743 ft 393 kts 34°
2026-04-24 02:01 5.79156 -3.50068 22164 ft 396 kts 34°
2026-04-24 02:01 5.81473 -3.48550 22588 ft 400 kts 34°
2026-04-24 02:01 5.83814 -3.47021 23010 ft 403 kts 34°
2026-04-24 02:02 5.86181 -3.45479 23435 ft 406 kts 34°
2026-04-24 02:02 5.88562 -3.43928 23785 ft 409 kts 34°
2026-04-24 02:02 5.90953 -3.42367 24144 ft 412 kts 34°
2026-04-24 02:02 5.93361 -3.40792 24506 ft 414 kts 34°
2026-04-24 02:03 5.98216 -3.37616 25235 ft 419 kts 34°
2026-04-24 02:03 6.00661 -3.36017 25593 ft 421 kts 34°
2026-04-24 02:03 6.03124 -3.34407 25941 ft 423 kts 34°
2026-04-24 02:04 6.05604 -3.32786 26284 ft 426 kts 34°
2026-04-24 02:04 6.08092 -3.31156 26610 ft 428 kts 34°
2026-04-24 02:04 6.10593 -3.29516 26948 ft 430 kts 34°
2026-04-24 02:04 6.13108 -3.27867 27287 ft 432 kts 34°
2026-04-24 02:05 6.15633 -3.26214 27625 ft 434 kts 33°
2026-04-24 02:05 6.18171 -3.24556 27948 ft 436 kts 33°
2026-04-24 02:05 6.20719 -3.22893 28280 ft 438 kts 33°
2026-04-24 02:05 6.23277 -3.21220 28587 ft 440 kts 34°
2026-04-24 02:06 6.25845 -3.19534 28915 ft 442 kts 34°
2026-04-24 02:06 6.28374 -3.17774 29211 ft 443 kts 39°
2026-04-24 02:06 6.30758 -3.15857 29527 ft 445 kts 39°
2026-04-24 02:06 6.33189 -3.13906 29820 ft 448 kts 39°
2026-04-24 02:07 6.35626 -3.11950 30088 ft 450 kts 39°
2026-04-24 02:07 6.38073 -3.09982 30331 ft 451 kts 39°
2026-04-24 02:07 6.40538 -3.08004 30577 ft 453 kts 39°
2026-04-24 02:07 6.43012 -3.06023 30813 ft 455 kts 39°
2026-04-24 02:08 6.45489 -3.04040 31053 ft 457 kts 39°
2026-04-24 02:08 6.47974 -3.02041 31348 ft 456 kts 39°
2026-04-24 02:08 6.50453 -3.00045 31696 ft 455 kts 39°
2026-04-24 02:08 6.52925 -2.98059 32065 ft 454 kts 39°
2026-04-24 02:09 6.55391 -2.96074 32396 ft 453 kts 39°
2026-04-24 02:09 6.57849 -2.94094 32729 ft 453 kts 39°
2026-04-24 02:09 6.60305 -2.92115 33016 ft 453 kts 38°
2026-04-24 02:09 6.62739 -2.90161 33338 ft 453 kts 38°
2026-04-24 02:10 6.65203 -2.88182 33645 ft 454 kts 38°
2026-04-24 02:10 6.67670 -2.86200 33958 ft 454 kts 38°
2026-04-24 02:10 6.70134 -2.84223 34214 ft 454 kts 38°
2026-04-24 02:10 6.72603 -2.82240 34481 ft 454 kts 39°
2026-04-24 02:11 6.75067 -2.80257 34740 ft 454 kts 39°
2026-04-24 02:11 6.77530 -2.78272 35000 ft 453 kts 39°
2026-04-24 02:11 6.79994 -2.76286 35248 ft 453 kts 39°
2026-04-24 02:11 6.82458 -2.74304 35500 ft 453 kts 39°
2026-04-24 02:12 6.84921 -2.72324 35732 ft 453 kts 39°
2026-04-24 02:12 6.87394 -2.70336 35955 ft 454 kts 39°
2026-04-24 02:12 6.89859 -2.68352 36171 ft 455 kts 39°
2026-04-24 02:12 6.92328 -2.66362 36388 ft 454 kts 39°
2026-04-24 02:13 6.94795 -2.64375 36696 ft 452 kts 39°
2026-04-24 02:13 6.97248 -2.62400 36869 ft 452 kts 39°
2026-04-24 02:13 7.02137 -2.58459 36895 ft 448 kts 39°
2026-04-24 02:14 7.07005 -2.54537 36895 ft 448 kts 39°
2026-04-24 02:14 7.11871 -2.50614 36895 ft 448 kts 39°
2026-04-24 02:15 7.16711 -2.46711 36887 ft 448 kts 39°
2026-04-24 02:15 7.21584 -2.42780 36888 ft 448 kts 39°
2026-04-24 02:16 7.26455 -2.38849 36891 ft 449 kts 39°
2026-04-24 02:16 7.31339 -2.34904 36888 ft 449 kts 39°
2026-04-24 02:17 7.36215 -2.30975 36890 ft 449 kts 39°
2026-04-24 02:17 7.41315 -2.27408 36900 ft 449 kts 33°
2026-04-24 02:18 7.46546 -2.23974 36893 ft 450 kts 33°
2026-04-24 02:18 7.51800 -2.20520 36892 ft 450 kts 33°
2026-04-24 02:19 7.57056 -2.17069 36889 ft 450 kts 33°
2026-04-24 02:19 7.62310 -2.13617 36872 ft 451 kts 33°
2026-04-24 02:20 7.67548 -2.10172 36865 ft 453 kts 34°
2026-04-24 02:20 7.72826 -2.06694 36864 ft 454 kts 33°
2026-04-24 02:21 7.78125 -2.03213 36863 ft 454 kts 33°
2026-04-24 02:21 7.83433 -1.99725 36867 ft 455 kts 33°
2026-04-24 02:22 7.88734 -1.96237 36870 ft 455 kts 33°
2026-04-24 02:22 7.94044 -1.92742 36864 ft 455 kts 33°
2026-04-24 02:23 7.99355 -1.89249 36863 ft 456 kts 33°
2026-04-24 02:23 8.04672 -1.85747 36844 ft 457 kts 33°
2026-04-24 02:24 8.10001 -1.82245 36845 ft 457 kts 33°
2026-04-24 02:24 8.15255 -1.78790 36848 ft 457 kts 33°
2026-04-24 02:25 8.20583 -1.75283 36838 ft 458 kts 33°
2026-04-24 02:25 8.25923 -1.71759 36842 ft 458 kts 33°
2026-04-24 02:26 8.31258 -1.68228 36844 ft 458 kts 33°
2026-04-24 02:26 8.36592 -1.64701 36840 ft 458 kts 33°
2026-04-24 02:27 8.41922 -1.61185 36845 ft 457 kts 33°
2026-04-24 02:27 8.47245 -1.57680 36845 ft 457 kts 33°
2026-04-24 02:28 8.52538 -1.54193 36840 ft 456 kts 33°
2026-04-24 02:28 8.57851 -1.50678 36838 ft 456 kts 33°
2026-04-24 02:29 8.63161 -1.47162 36838 ft 456 kts 33°
2026-04-24 02:29 8.68478 -1.43651 36833 ft 456 kts 33°
2026-04-24 02:30 8.73791 -1.40142 36832 ft 456 kts 33°
2026-04-24 02:30 8.79101 -1.36631 36827 ft 456 kts 33°
2026-04-24 02:31 8.84404 -1.33120 36827 ft 456 kts 33°
2026-04-24 02:31 8.89671 -1.29625 36826 ft 456 kts 33°
2026-04-24 02:32 8.94979 -1.26112 36820 ft 456 kts 33°
2026-04-24 02:32 9.00281 -1.22599 36821 ft 456 kts 33°
2026-04-24 02:33 9.05590 -1.19078 36820 ft 456 kts 33°
2026-04-24 02:33 9.10892 -1.15558 36815 ft 456 kts 33°
2026-04-24 02:34 9.16202 -1.12041 36813 ft 456 kts 33°
2026-04-24 02:34 9.21514 -1.08527 36810 ft 456 kts 33°
2026-04-24 02:35 9.26834 -1.04995 36804 ft 457 kts 33°
2026-04-24 02:35 9.32111 -1.01486 36803 ft 457 kts 33°
2026-04-24 02:36 9.37436 -0.97948 36805 ft 457 kts 33°
2026-04-24 02:36 9.42755 -0.94416 36800 ft 457 kts 33°
2026-04-24 02:37 9.48075 -0.90882 36804 ft 457 kts 32°
2026-04-24 02:37 9.53396 -0.87345 36802 ft 457 kts 32°
2026-04-24 02:38 9.58698 -0.83780 36801 ft 457 kts 34°
2026-04-24 02:38 9.63811 -0.79927 36799 ft 458 kts 37°
2026-04-24 02:39 9.68781 -0.75958 36803 ft 458 kts 38°
2026-04-24 02:39 9.73815 -0.71993 36800 ft 458 kts 37°
2026-04-24 02:40 9.78896 -0.68090 36794 ft 458 kts 36°
2026-04-24 02:40 9.83991 -0.64191 36795 ft 459 kts 36°
2026-04-24 02:41 9.89074 -0.60279 36803 ft 459 kts 37°
2026-04-24 02:41 9.94145 -0.56354 36801 ft 458 kts 37°
2026-04-24 02:42 9.99191 -0.52455 36804 ft 458 kts 37°
2026-04-24 02:42 10.04272 -0.48537 36805 ft 458 kts 37°
2026-04-24 02:43 10.09348 -0.44622 36800 ft 458 kts 37°
2026-04-24 02:43 10.14417 -0.40702 36812 ft 458 kts 37°
2026-04-24 02:44 10.18644 -0.37450 36808 ft 458 kts 36°
2026-04-24 02:44 10.23734 -0.33544 36812 ft 458 kts 37°
2026-04-24 02:45 10.28822 -0.29626 36814 ft 459 kts 36°
2026-04-24 02:45 10.33915 -0.25707 36810 ft 459 kts 37°
2026-04-24 02:46 10.38972 -0.21809 36808 ft 459 kts 37°
2026-04-24 02:46 10.44065 -0.17884 36811 ft 459 kts 36°
2026-04-24 02:47 10.49152 -0.13963 36816 ft 459 kts 36°
2026-04-24 02:47 10.54240 -0.10035 36816 ft 459 kts 37°
2026-04-24 02:48 10.59329 -0.06108 36811 ft 459 kts 36°
2026-04-24 02:48 10.64384 -0.02119 36806 ft 460 kts 42°
2026-04-24 02:49 10.69021 0.02372 36807 ft 461 kts 43°
2026-04-24 02:49 10.73631 0.06843 36809 ft 461 kts 43°
2026-04-24 02:50 10.78271 0.11343 36812 ft 461 kts 43°
2026-04-24 02:50 10.82904 0.15843 36813 ft 461 kts 43°
2026-04-24 02:51 10.87542 0.20349 36813 ft 461 kts 43°
2026-04-24 02:51 10.92175 0.24871 36813 ft 461 kts 43°
2026-04-24 02:52 10.96806 0.29384 36813 ft 461 kts 43°
2026-04-24 02:52 11.01598 0.33699 36814 ft 460 kts 36°
2026-04-24 02:53 11.06756 0.37559 36812 ft 460 kts 36°
2026-04-24 02:53 11.11918 0.41429 36817 ft 460 kts 36°
2026-04-24 02:54 11.17048 0.45270 36811 ft 461 kts 36°
2026-04-24 02:54 11.22136 0.49080 36814 ft 461 kts 36°
2026-04-24 02:55 11.27329 0.52977 36806 ft 461 kts 36°
2026-04-24 02:55 11.32490 0.56853 36806 ft 461 kts 36°
2026-04-24 02:56 11.37654 0.60729 36814 ft 461 kts 36°
2026-04-24 02:56 11.42820 0.64620 36799 ft 462 kts 36°
2026-04-24 02:57 11.47992 0.68517 36796 ft 462 kts 36°
2026-04-24 02:57 11.53170 0.72403 36798 ft 462 kts 36°
2026-04-24 02:58 11.58345 0.76299 36805 ft 462 kts 36°
2026-04-24 02:58 11.63526 0.80198 36802 ft 462 kts 36°
2026-04-24 02:59 11.68670 0.84074 36802 ft 463 kts 36°
2026-04-24 02:59 11.73848 0.87982 36789 ft 463 kts 36°
2026-04-24 03:00 11.79041 0.91887 36782 ft 464 kts 36°
2026-04-24 03:00 11.84230 0.95796 36793 ft 464 kts 36°
2026-04-24 03:01 11.89427 0.99721 36460 ft 464 kts 36°
2026-04-24 03:01 11.92024 1.01683 35890 ft 462 kts 36°
2026-04-24 03:01 11.94611 1.03641 35347 ft 460 kts 36°
2026-04-24 03:02 11.97172 1.05579 34799 ft 458 kts 35°
2026-04-24 03:02 11.99732 1.07513 34239 ft 456 kts 35°
2026-04-24 03:02 12.02278 1.09435 33672 ft 454 kts 35°
2026-04-24 03:02 12.04809 1.11348 33107 ft 452 kts 35°
2026-04-24 03:03 12.07334 1.13259 32547 ft 449 kts 35°
2026-04-24 03:03 12.09835 1.15150 32019 ft 447 kts 35°
2026-04-24 03:03 12.12299 1.17012 31486 ft 444 kts 34°
2026-04-24 03:03 12.14775 1.18885 30967 ft 441 kts 34°
2026-04-24 03:04 12.17236 1.20750 30449 ft 438 kts 34°
2026-04-24 03:04 12.19680 1.22604 29940 ft 435 kts 33°
2026-04-24 03:04 12.22098 1.24436 29403 ft 431 kts 33°
2026-04-24 03:04 12.24493 1.26246 28928 ft 425 kts 33°
2026-04-24 03:05 12.26852 1.28032 28443 ft 419 kts 33°
2026-04-24 03:05 12.29179 1.29797 27993 ft 413 kts 33°
2026-04-24 03:05 12.31472 1.31534 27539 ft 408 kts 33°
2026-04-24 03:05 12.33745 1.33255 27063 ft 403 kts 33°
2026-04-24 03:06 12.35988 1.34952 26620 ft 398 kts 33°
2026-04-24 03:06 12.38177 1.36607 26144 ft 394 kts 33°
2026-04-24 03:06 12.40374 1.38271 25687 ft 391 kts 33°
2026-04-24 03:06 12.42546 1.39923 25204 ft 388 kts 33°
2026-04-24 03:07 12.44705 1.41570 24729 ft 385 kts 33°
2026-04-24 03:07 12.46850 1.43204 24221 ft 383 kts 33°
2026-04-24 03:07 12.48987 1.44829 23743 ft 381 kts 34°
2026-04-24 03:07 12.51110 1.46440 23236 ft 380 kts 34°
2026-04-24 03:08 12.53241 1.48058 22694 ft 378 kts 34°
2026-04-24 03:08 12.57396 1.51215 21745 ft 371 kts 34°
2026-04-24 03:08 12.59457 1.52781 21289 ft 368 kts 34°
2026-04-24 03:09 12.61509 1.54342 20818 ft 366 kts 34°
2026-04-24 03:09 12.63550 1.55893 20365 ft 364 kts 34°
2026-04-24 03:09 12.65578 1.57434 19912 ft 361 kts 34°
2026-04-24 03:09 12.67593 1.58966 19463 ft 360 kts 34°
2026-04-24 03:10 12.69600 1.60493 19023 ft 358 kts 34°
2026-04-24 03:10 12.71596 1.62011 18580 ft 357 kts 34°
2026-04-24 03:10 12.73587 1.63527 18136 ft 356 kts 34°
2026-04-24 03:10 12.75572 1.65039 17662 ft 355 kts 34°
2026-04-24 03:11 12.77536 1.66536 17218 ft 347 kts 34°
2026-04-24 03:11 12.79432 1.67983 16809 ft 333 kts 34°
2026-04-24 03:11 12.81258 1.69375 16417 ft 320 kts 34°
2026-04-24 03:11 12.82995 1.70700 16051 ft 310 kts 34°
2026-04-24 03:12 12.84705 1.72003 15688 ft 306 kts 34°
2026-04-24 03:12 12.86414 1.73303 15324 ft 307 kts 35°
2026-04-24 03:12 12.88143 1.74618 14959 ft 308 kts 35°
2026-04-24 03:12 12.89861 1.75924 14597 ft 309 kts 35°
2026-04-24 03:13 12.91591 1.77238 14232 ft 309 kts 35°
2026-04-24 03:13 12.93322 1.78553 13869 ft 310 kts 35°
2026-04-24 03:13 12.95059 1.79874 13483 ft 311 kts 35°
2026-04-24 03:13 12.96795 1.81197 13083 ft 311 kts 36°
2026-04-24 03:14 12.98527 1.82522 12705 ft 310 kts 36°
2026-04-24 03:14 13.00253 1.83842 12321 ft 309 kts 36°
2026-04-24 03:14 13.01978 1.85161 11939 ft 309 kts 36°
2026-04-24 03:14 13.03700 1.86481 11557 ft 308 kts 36°
2026-04-24 03:15 13.05393 1.87778 11170 ft 307 kts 36°
2026-04-24 03:15 13.07107 1.89087 10782 ft 306 kts 36°
2026-04-24 03:15 13.08816 1.90391 10382 ft 306 kts 36°
2026-04-24 03:15 13.10521 1.91692 9986 ft 305 kts 36°
2026-04-24 03:16 13.12206 1.92948 9632 ft 303 kts 31°
2026-04-24 03:16 13.14086 1.93827 9426 ft 292 kts 16°
2026-04-24 03:16 13.16057 1.94252 8897 ft 288 kts 10°
2026-04-24 03:16 13.18018 1.94617 8298 ft 283 kts 10°
2026-04-24 03:17 13.19922 1.94969 7873 ft 273 kts 10°
2026-04-24 03:17 13.21767 1.95310 7459 ft 268 kts 10°
2026-04-24 03:17 13.23592 1.95648 7037 ft 265 kts 10°
2026-04-24 03:17 13.25400 1.95986 6620 ft 263 kts 10°
2026-04-24 03:18 13.27190 1.96324 6206 ft 261 kts 11°
2026-04-24 03:18 13.28967 1.96661 5772 ft 259 kts 11°
2026-04-24 03:18 13.30705 1.96992 5352 ft 256 kts 11°
2026-04-24 03:18 13.32443 1.97321 4933 ft 250 kts 11°
2026-04-24 03:19 13.34145 1.97643 4530 ft 242 kts 11°
2026-04-24 03:19 13.35748 1.97945 4273 ft 228 kts 11°
2026-04-24 03:19 13.37275 1.98232 3934 ft 219 kts 10°
2026-04-24 03:19 13.38763 1.98512 3587 ft 218 kts 11°
2026-04-24 03:20 13.40246 1.98792 3213 ft 222 kts 10°
2026-04-24 03:20 13.41769 1.99079 2985 ft 219 kts 10°
2026-04-24 03:20 13.43211 1.99350 2994 ft 201 kts 10°
2026-04-24 03:20 13.44546 1.99604 2988 ft 191 kts 12°
2026-04-24 03:21 13.45766 2.00087 2979 ft 188 kts 31°
2026-04-24 03:21 13.46742 2.00972 2983 ft 188 kts 50°
2026-04-24 03:21 13.47351 2.02145 2975 ft 182 kts 70°
2026-04-24 03:21 13.47527 2.03406 2976 ft 176 kts 84°
2026-04-24 03:22 13.47586 2.04653 2874 ft 173 kts 83°
2026-04-24 03:22 13.47644 2.05884 2696 ft 172 kts 83°
2026-04-24 03:22 13.47701 2.07103 2494 ft 168 kts 83°
2026-04-24 03:22 13.47753 2.08244 2310 ft 153 kts 83°
2026-04-24 03:23 13.47803 2.09307 2115 ft 146 kts 83°
2026-04-24 03:23 13.47852 2.10339 1933 ft 143 kts 83°
2026-04-24 03:23 13.47900 2.11353 1757 ft 142 kts 82°
2026-04-24 03:23 13.47948 2.12368 1590 ft 142 kts 83°
2026-04-24 03:24 13.47994 2.13378 1422 ft 141 kts 84°
2026-04-24 03:24 13.48052 2.14373 1229 ft 142 kts 85°
2026-04-24 03:24 13.48090 2.15386 1049 ft 142 kts 87°
2026-04-24 03:24 13.48132 2.16402 885 ft 143 kts 86°
2026-04-24 03:25 13.48184 2.17412 740 ft 134 kts 85°
2026-04-24 03:25 13.48212 2.18223 729 ft 89 kts 85°
2026-04-24 03:25 13.48238 2.18679 727 ft 39 kts 88°
2026-04-24 03:25 13.48253 2.19009 722 ft 49 kts 87°
2026-04-24 03:26 13.48269 2.19314 719 ft 28 kts 87°
2026-04-24 03:26 13.48277 2.19527 720 ft 32 kts 88°
2026-04-24 03:26 13.48277 2.19688 720 ft 3 kts 124°
2026-04-24 03:26 13.48247 2.19709 718 ft 7 kts 155°
2026-04-24 03:27 13.48187 2.19707 718 ft 6 kts 180°
2026-04-24 03:27 13.48137 2.19707 718 ft 9 kts 180°
2026-04-24 03:27 13.48096 2.19657 719 ft 12 kts 264°
2026-04-24 03:27 13.48091 2.19559 721 ft 16 kts 268°
2026-04-24 03:28 13.48087 2.19427 723 ft 21 kts 267°
2026-04-24 03:28 13.48079 2.19266 722 ft 25 kts 267°
2026-04-24 03:28 13.48073 2.19078 723 ft 28 kts 268°
2026-04-24 03:28 13.48061 2.18869 724 ft 31 kts 266°
2026-04-24 03:29 13.48052 2.18691 726 ft 23 kts 266°
2026-04-24 03:29 13.48045 2.18516 727 ft 26 kts 268°
2026-04-24 03:29 13.48038 2.18346 728 ft 22 kts 267°
2026-04-24 03:29 13.48029 2.18174 729 ft 26 kts 266°
2026-04-24 03:30 13.48020 2.17977 730 ft 29 kts 268°
2026-04-24 03:30 13.48013 2.17777 731 ft 19 kts 264°
2026-04-24 03:30 13.47996 2.17654 731 ft 11 kts 233°
2026-04-24 03:30 13.47941 2.17647 732 ft 14 kts 175°
2026-04-24 03:31 13.47877 2.17730 732 ft 11 kts 87°
2026-04-24 03:31 13.47881 2.17827 731 ft 16 kts 87°
2026-04-24 03:31 13.47885 2.17932 731 ft 6 kts 99°
2026-04-24 03:31 13.47855 2.17949 730 ft 9 kts 170°
2026-04-24 03:32 13.47821 2.17950 731 ft 1 kts 175°
2026-04-24 03:32 13.47805 2.17951 731 ft 1 kts 176°
2026-04-24 03:32 13.47804 2.17951 731 ft 0 kts 176°